contact:dominique.lefevre@mio.osupytheas.fr, maurice.libes@osupytheas.fr, didier.mallarino@osupytheas.fr
Project:EMSO http://www.emso-fr.org/EMSO-France
Depth: 2436.0 m
Title:EMSO Ligure Ouest : Data MII capteur CSTAR
DateTime,Latitude,Longitude,Instrument_Serial,Reference_Counts,Signal_Counts,Corrected_Signal_raw_counts,Calculated_Beam_c_inverse_meters,Internal_thermistor_counts
DateTime,Latitude,Longitude,Instrument_Serial,Reference_Counts,Signal_Counts,Corrected_Signal_raw_counts,Calculated_Beam_c_inverse_meters,Internal_thermistor_counts
2022-12-15T00:01:51,42.805,6.029,CST-1368DR,4450,5029,12016,01.048,551
2022-12-15T00:04:53,42.805,6.029,CST-1368DR,4450,5030,12017,01.048,551
2022-12-15T00:07:54,42.805,6.029,CST-1368DR,4450,5030,12017,01.048,551
2022-12-15T00:10:56,42.805,6.029,CST-1368DR,4450,5031,12019,01.047,551
2022-12-15T00:13:58,42.805,6.029,CST-1368DR,4450,5030,12017,01.048,551
2022-12-15T00:16:59,42.805,6.029,CST-1368DR,4450,5031,12019,01.047,551
2022-12-15T00:20:01,42.805,6.029,CST-1368DR,4450,5031,12019,01.047,551
2022-12-15T00:23:02,42.805,6.029,CST-1368DR,4450,5029,12016,01.048,551
2022-12-15T00:26:04,42.805,6.029,CST-1368DR,4450,5030,12018,01.048,551
2022-12-15T00:29:06,42.805,6.029,CST-1368DR,4450,5030,12018,01.048,551
2022-12-15T00:32:07,42.805,6.029,CST-1368DR,4450,5031,12019,01.047,551
2022-12-15T00:35:09,42.805,6.029,CST-1368DR,4450,5024,12004,01.052,551
2022-12-15T00:38:10,42.805,6.029,CST-1368DR,4450,5028,12014,01.049,551
2022-12-15T00:41:12,42.805,6.029,CST-1368DR,4450,5029,12014,01.049,551
2022-12-15T00:44:13,42.805,6.029,CST-1368DR,4450,5028,12012,01.050,551
2022-12-15T00:47:15,42.805,6.029,CST-1368DR,4450,5030,12017,01.048,551
2022-12-15T00:50:17,42.805,6.029,CST-1368DR,4450,5030,12017,01.048,551
2022-12-15T00:53:18,42.805,6.029,CST-1368DR,4450,5029,12015,01.049,551
2022-12-15T00:56:20,42.805,6.029,CST-1368DR,4450,5030,12017,01.048,551
2022-12-15T00:59:21,42.805,6.029,CST-1368DR,4450,5029,12016,01.048,551
2022-12-15T01:02:23,42.805,6.029,CST-1368DR,4450,5030,12018,01.048,551
2022-12-15T01:05:25,42.805,6.029,CST-1368DR,4450,5030,12017,01.048,551
2022-12-15T01:08:26,42.805,6.029,CST-1368DR,4450,5030,12018,01.048,551
2022-12-15T01:11:28,42.805,6.029,CST-1368DR,4450,5029,12015,01.049,551
2022-12-15T01:14:29,42.805,6.029,CST-1368DR,4450,5030,12018,01.048,551
2022-12-15T01:17:31,42.805,6.029,CST-1368DR,4450,5032,12022,01.046,551
2022-12-15T01:20:33,42.805,6.029,CST-1368DR,4450,5030,12017,01.048,551
2022-12-15T01:23:34,42.805,6.029,CST-1368DR,4450,5029,12016,01.048,551
2022-12-15T01:26:36,42.805,6.029,CST-1368DR,4450,5026,12008,01.051,551
2022-12-15T01:29:37,42.805,6.029,CST-1368DR,4450,5029,12016,01.048,551
2022-12-15T01:32:39,42.805,6.029,CST-1368DR,4450,5025,12005,01.052,551
2022-12-15T01:35:40,42.805,6.029,CST-1368DR,4450,5029,12014,01.049,551
2022-12-15T01:38:42,42.805,6.029,CST-1368DR,4450,5028,12012,01.050,551
2022-12-15T01:41:44,42.805,6.029,CST-1368DR,4450,5028,12014,01.049,551
2022-12-15T01:44:45,42.805,6.029,CST-1368DR,4450,5029,12014,01.049,551
2022-12-15T01:47:47,42.805,6.029,CST-1368DR,4450,5027,12011,01.050,551
2022-12-15T01:50:48,42.805,6.029,CST-1368DR,4450,5026,12007,01.051,551
2022-12-15T01:53:50,42.805,6.029,CST-1368DR,4450,5029,12014,01.049,551
2022-12-15T01:56:52,42.805,6.029,CST-1368DR,4450,5028,12014,01.049,551
2022-12-15T01:59:53,42.805,6.029,CST-1368DR,4450,5028,12012,01.050,551
2022-12-15T02:02:55,42.805,6.029,CST-1368DR,4450,5027,12011,01.050,551
2022-12-15T02:05:56,42.805,6.029,CST-1368DR,4450,5024,12003,01.053,551
2022-12-15T02:08:58,42.805,6.029,CST-1368DR,4450,5024,12004,01.052,551
2022-12-15T02:11:59,42.805,6.029,CST-1368DR,4450,5026,12007,01.051,551
2022-12-15T02:15:01,42.805,6.029,CST-1368DR,4450,5026,12009,01.051,551
2022-12-15T02:18:03,42.805,6.029,CST-1368DR,4450,5023,12001,01.053,551
2022-12-15T02:21:04,42.805,6.029,CST-1368DR,4450,5027,12010,01.050,551
2022-12-15T02:24:06,42.805,6.029,CST-1368DR,4450,5028,12014,01.049,551
2022-12-15T02:27:07,42.805,6.029,CST-1368DR,4450,5030,12018,01.048,551
2022-12-15T02:30:09,42.805,6.029,CST-1368DR,4450,5031,12021,01.047,551
2022-12-15T02:33:11,42.805,6.029,CST-1368DR,4450,5029,12016,01.048,551
2022-12-15T02:36:12,42.805,6.029,CST-1368DR,4450,5029,12015,01.049,551
2022-12-15T02:39:14,42.805,6.029,CST-1368DR,4450,5029,12015,01.049,551
2022-12-15T02:42:15,42.805,6.029,CST-1368DR,4450,5031,12020,01.047,551
2022-12-15T02:45:17,42.805,6.029,CST-1368DR,4450,5030,12017,01.048,551
2022-12-15T02:48:18,42.805,6.029,CST-1368DR,4450,5027,12011,01.050,551
2022-12-15T02:51:20,42.805,6.029,CST-1368DR,4450,5018,11988,01.058,551
2022-12-15T02:54:22,42.805,6.029,CST-1368DR,4450,5020,11994,01.056,551
2022-12-15T02:57:23,42.805,6.029,CST-1368DR,4450,5019,11991,01.057,551
2022-12-15T03:00:25,42.805,6.029,CST-1368DR,4450,5020,11994,01.056,551
2022-12-15T03:03:26,42.805,6.029,CST-1368DR,4450,5022,11999,01.054,551
2022-12-15T03:06:28,42.805,6.029,CST-1368DR,4450,5019,11992,01.056,551
2022-12-15T03:09:30,42.805,6.029,CST-1368DR,4450,5021,11996,01.055,551
2022-12-15T03:12:31,42.805,6.029,CST-1368DR,4450,5024,12003,01.053,551
2022-12-15T03:15:33,42.805,6.029,CST-1368DR,4450,5023,12000,01.054,551
2022-12-15T03:18:34,42.805,6.029,CST-1368DR,4449,5022,12000,01.054,551
2022-12-15T03:21:36,42.805,6.029,CST-1368DR,4450,5023,12000,01.054,551
2022-12-15T03:24:38,42.805,6.029,CST-1368DR,4450,5024,12004,01.052,551
2022-12-15T03:27:39,42.805,6.029,CST-1368DR,4450,5026,12009,01.051,551
2022-12-15T03:30:41,42.805,6.029,CST-1368DR,4449,5026,12010,01.050,551
2022-12-15T03:33:42,42.805,6.029,CST-1368DR,4449,4993,11932,01.076,551
2022-12-15T03:36:44,42.805,6.029,CST-1368DR,4449,5024,12005,01.052,551
2022-12-15T03:39:45,42.805,6.029,CST-1368DR,4449,5023,12002,01.053,551
2022-12-15T03:42:47,42.805,6.029,CST-1368DR,4449,5021,11998,01.054,551
2022-12-15T03:45:49,42.805,6.029,CST-1368DR,4449,5023,12003,01.053,551
2022-12-15T03:48:50,42.805,6.029,CST-1368DR,4449,5023,12003,01.053,551
2022-12-15T03:51:52,42.805,6.029,CST-1368DR,4449,5024,12005,01.052,551
2022-12-15T03:54:53,42.805,6.029,CST-1368DR,4449,5022,12001,01.053,551
2022-12-15T03:57:55,42.805,6.029,CST-1368DR,4449,5022,12000,01.054,551
2022-12-15T04:00:57,42.805,6.029,CST-1368DR,4449,5021,11999,01.054,551
2022-12-15T04:03:58,42.805,6.029,CST-1368DR,4449,5021,11999,01.054,551
2022-12-15T04:07:00,42.805,6.029,CST-1368DR,4449,5020,11996,01.055,551
2022-12-15T04:10:01,42.805,6.029,CST-1368DR,4449,5022,12001,01.053,551
2022-12-15T04:13:03,42.805,6.029,CST-1368DR,4449,5019,11993,01.056,551
2022-12-15T04:16:04,42.805,6.029,CST-1368DR,4449,5018,11991,01.057,551
2022-12-15T04:19:06,42.805,6.029,CST-1368DR,4449,5018,11992,01.056,551
2022-12-15T04:22:08,42.805,6.029,CST-1368DR,4449,5015,11984,01.059,551
2022-12-15T04:25:09,42.805,6.029,CST-1368DR,4449,5020,11995,01.055,551
2022-12-15T04:28:11,42.805,6.029,CST-1368DR,4449,5019,11993,01.056,551
2022-12-15T04:31:12,42.805,6.029,CST-1368DR,4449,5020,11996,01.055,551
2022-12-15T04:34:14,42.805,6.029,CST-1368DR,4449,5018,11991,01.057,551
2022-12-15T04:37:16,42.805,6.029,CST-1368DR,4449,5018,11990,01.057,551
2022-12-15T04:40:17,42.805,6.029,CST-1368DR,4449,5018,11992,01.056,551
2022-12-15T04:43:19,42.805,6.029,CST-1368DR,4449,5019,11993,01.056,551
2022-12-15T04:46:20,42.805,6.029,CST-1368DR,4449,5017,11990,01.057,551
2022-12-15T04:49:22,42.805,6.029,CST-1368DR,4449,5014,11983,01.059,551
2022-12-15T04:52:23,42.805,6.029,CST-1368DR,4449,5021,11999,01.054,551
2022-12-15T04:55:25,42.805,6.029,CST-1368DR,4449,5019,11994,01.056,551
2022-12-15T04:58:27,42.805,6.029,CST-1368DR,4449,5022,12000,01.054,551
2022-12-15T05:01:28,42.805,6.029,CST-1368DR,4449,5018,11992,01.056,551
2022-12-15T05:04:30,42.805,6.029,CST-1368DR,4449,5020,11996,01.055,551
2022-12-15T05:07:31,42.805,6.029,CST-1368DR,4449,5015,11984,01.059,551
2022-12-15T05:10:33,42.805,6.029,CST-1368DR,4449,5017,11989,01.057,551
2022-12-15T05:13:35,42.805,6.029,CST-1368DR,4449,5017,11988,01.058,551
2022-12-15T05:16:36,42.805,6.029,CST-1368DR,4449,5028,12015,01.049,551
2022-12-15T05:19:38,42.805,6.029,CST-1368DR,4449,5020,11996,01.055,551
2022-12-15T05:22:39,42.805,6.029,CST-1368DR,4449,5022,12001,01.053,551
2022-12-15T05:25:41,42.805,6.029,CST-1368DR,4449,5019,11993,01.056,551
2022-12-15T05:28:42,42.805,6.029,CST-1368DR,4449,5018,11990,01.057,551
2022-12-15T05:31:44,42.805,6.029,CST-1368DR,4449,5019,11994,01.056,551
2022-12-15T05:34:46,42.805,6.029,CST-1368DR,4449,5019,11993,01.056,551
2022-12-15T05:37:47,42.805,6.029,CST-1368DR,4449,5019,11993,01.056,551
2022-12-15T05:40:49,42.805,6.029,CST-1368DR,4449,5017,11989,01.057,551
2022-12-15T05:43:50,42.805,6.029,CST-1368DR,4449,5019,11995,01.055,551
2022-12-15T05:46:52,42.805,6.029,CST-1368DR,4449,5017,11989,01.057,551
2022-12-15T05:49:54,42.805,6.029,CST-1368DR,4449,5020,11996,01.055,551
2022-12-15T05:52:55,42.805,6.029,CST-1368DR,4449,5020,11997,01.055,551
2022-12-15T05:55:57,42.805,6.029,CST-1368DR,4449,5022,12002,01.053,551
2022-12-15T05:58:58,42.805,6.029,CST-1368DR,4449,5022,12000,01.054,551
2022-12-15T06:02:00,42.805,6.029,CST-1368DR,4449,5019,11994,01.056,551
2022-12-15T06:05:01,42.805,6.029,CST-1368DR,4449,5021,11998,01.054,551
2022-12-15T06:08:03,42.805,6.029,CST-1368DR,4449,5020,11996,01.055,551
2022-12-15T06:11:05,42.805,6.029,CST-1368DR,4449,5019,11995,01.055,551
2022-12-15T06:14:06,42.805,6.029,CST-1368DR,4449,5017,11990,01.057,551
2022-12-15T06:17:08,42.805,6.029,CST-1368DR,4449,5020,11995,01.055,551
2022-12-15T06:20:09,42.805,6.029,CST-1368DR,4449,5018,11990,01.057,551
2022-12-15T06:23:11,42.805,6.029,CST-1368DR,4449,5019,11994,01.056,551
2022-12-15T06:26:13,42.805,6.029,CST-1368DR,4449,5018,11992,01.056,551
2022-12-15T06:29:14,42.805,6.029,CST-1368DR,4449,5016,11986,01.058,551
2022-12-15T06:32:16,42.805,6.029,CST-1368DR,4449,5019,11993,01.056,551
2022-12-15T06:35:17,42.805,6.029,CST-1368DR,4449,5018,11990,01.057,551
2022-12-15T06:38:19,42.805,6.029,CST-1368DR,4449,5018,11991,01.057,551
2022-12-15T06:41:21,42.805,6.029,CST-1368DR,4449,5018,11990,01.057,551
2022-12-15T06:44:22,42.805,6.029,CST-1368DR,4449,5018,11992,01.056,551
2022-12-15T06:47:24,42.805,6.029,CST-1368DR,4449,5017,11989,01.057,551
2022-12-15T06:50:25,42.805,6.029,CST-1368DR,4449,5017,11989,01.057,551
2022-12-15T06:53:27,42.805,6.029,CST-1368DR,4449,5019,11993,01.056,551
2022-12-15T06:56:28,42.805,6.029,CST-1368DR,4449,5019,11993,01.056,551
2022-12-15T06:59:30,42.805,6.029,CST-1368DR,4449,5019,11995,01.055,551
2022-12-15T07:02:32,42.805,6.029,CST-1368DR,4449,5019,11993,01.056,551
2022-12-15T07:05:33,42.805,6.029,CST-1368DR,4449,5019,11995,01.055,551
2022-12-15T07:08:35,42.805,6.029,CST-1368DR,4449,5019,11994,01.056,551
2022-12-15T07:11:36,42.805,6.029,CST-1368DR,4449,5019,11993,01.056,551
2022-12-15T07:14:38,42.805,6.029,CST-1368DR,4449,5017,11989,01.057,551
2022-12-15T07:17:40,42.805,6.029,CST-1368DR,4449,5017,11990,01.057,551
2022-12-15T07:20:41,42.805,6.029,CST-1368DR,4449,5019,11993,01.056,551
2022-12-15T07:23:43,42.805,6.029,CST-1368DR,4449,5023,12004,01.052,551
2022-12-15T07:26:44,42.805,6.029,CST-1368DR,4449,5018,11991,01.057,551
2022-12-15T07:29:46,42.805,6.029,CST-1368DR,4449,5019,11993,01.056,551
2022-12-15T07:32:47,42.805,6.029,CST-1368DR,4449,5018,11990,01.057,551
2022-12-15T07:35:49,42.805,6.029,CST-1368DR,4449,5022,12001,01.053,551
2022-12-15T07:38:51,42.805,6.029,CST-1368DR,4449,5022,12001,01.053,551
2022-12-15T07:41:52,42.805,6.029,CST-1368DR,4449,5020,11996,01.055,551
2022-12-15T07:44:54,42.805,6.029,CST-1368DR,4449,5020,11995,01.055,551
2022-12-15T07:47:55,42.805,6.029,CST-1368DR,4449,5019,11993,01.056,551
2022-12-15T07:50:57,42.805,6.029,CST-1368DR,4449,5022,12002,01.053,551
2022-12-15T07:53:59,42.805,6.029,CST-1368DR,4449,5021,11999,01.054,551
2022-12-15T07:57:00,42.805,6.029,CST-1368DR,4449,5020,11997,01.055,551
2022-12-15T08:00:02,42.805,6.029,CST-1368DR,4449,5019,11995,01.055,551
2022-12-15T08:03:03,42.805,6.029,CST-1368DR,4449,5022,12001,01.053,551
2022-12-15T08:06:05,42.805,6.029,CST-1368DR,4449,5020,11996,01.055,551
2022-12-15T08:09:07,42.805,6.029,CST-1368DR,4449,5021,11999,01.054,551
2022-12-15T08:12:08,42.805,6.029,CST-1368DR,4449,5021,11998,01.054,551
2022-12-15T08:15:10,42.805,6.029,CST-1368DR,4449,5019,11993,01.056,551
2022-12-15T08:18:11,42.805,6.029,CST-1368DR,4449,5017,11989,01.057,551
2022-12-15T08:21:13,42.805,6.029,CST-1368DR,4449,5018,11992,01.056,551
2022-12-15T08:24:14,42.805,6.029,CST-1368DR,4449,5018,11991,01.057,551
2022-12-15T08:27:16,42.805,6.029,CST-1368DR,4449,5019,11993,01.056,551
2022-12-15T08:30:18,42.805,6.029,CST-1368DR,4449,5023,12004,01.052,551
2022-12-15T08:33:19,42.805,6.029,CST-1368DR,4449,5017,11990,01.057,551
2022-12-15T08:36:21,42.805,6.029,CST-1368DR,4449,5019,11995,01.055,551
2022-12-15T08:39:22,42.805,6.029,CST-1368DR,4449,5020,11997,01.055,551
2022-12-15T08:42:24,42.805,6.029,CST-1368DR,4449,5023,12003,01.053,551
2022-12-15T08:45:26,42.805,6.029,CST-1368DR,4449,5020,11995,01.055,551
2022-12-15T08:48:27,42.805,6.029,CST-1368DR,4448,5021,12001,01.053,551
2022-12-15T08:51:29,42.805,6.029,CST-1368DR,4448,5011,11977,01.061,551
2022-12-15T08:54:30,42.805,6.029,CST-1368DR,4448,4977,11897,01.088,551
2022-12-15T08:57:32,42.805,6.029,CST-1368DR,4448,5016,11989,01.057,551
2022-12-15T09:00:33,42.805,6.029,CST-1368DR,4448,5013,11982,01.060,551
2022-12-15T09:03:35,42.805,6.029,CST-1368DR,4448,5013,11982,01.060,551
2022-12-15T09:06:37,42.805,6.029,CST-1368DR,4448,5017,11991,01.057,551
2022-12-15T09:09:38,42.805,6.029,CST-1368DR,4448,5015,11987,01.058,551
2022-12-15T09:12:40,42.805,6.029,CST-1368DR,4448,5018,11994,01.056,551
2022-12-15T09:15:41,42.805,6.029,CST-1368DR,4448,5014,11984,01.059,551
2022-12-15T09:18:43,42.805,6.029,CST-1368DR,4448,5013,11982,01.060,551
2022-12-15T09:21:45,42.805,6.029,CST-1368DR,4448,5013,11981,01.060,551
2022-12-15T09:24:46,42.805,6.029,CST-1368DR,4448,5016,11988,01.058,551
2022-12-15T09:27:48,42.805,6.029,CST-1368DR,4448,5013,11982,01.060,551
2022-12-15T09:30:49,42.805,6.029,CST-1368DR,4448,5014,11985,01.059,551
2022-12-15T09:33:51,42.805,6.029,CST-1368DR,4448,5014,11985,01.059,551
2022-12-15T09:36:53,42.805,6.029,CST-1368DR,4448,5015,11988,01.058,551
2022-12-15T09:39:54,42.805,6.029,CST-1368DR,4448,5014,11984,01.059,551
2022-12-15T09:42:56,42.805,6.029,CST-1368DR,4448,5017,11992,01.056,551
2022-12-15T09:45:57,42.805,6.029,CST-1368DR,4448,5016,11988,01.058,551
2022-12-15T09:48:59,42.805,6.029,CST-1368DR,4448,5017,11991,01.057,551
2022-12-15T09:52:00,42.805,6.029,CST-1368DR,4448,5013,11982,01.060,551
2022-12-15T09:55:02,42.805,6.029,CST-1368DR,4448,5016,11990,01.057,551
2022-12-15T09:58:04,42.805,6.029,CST-1368DR,4448,5016,11989,01.057,551
2022-12-15T10:01:05,42.805,6.029,CST-1368DR,4448,5016,11989,01.057,551
2022-12-15T10:04:07,42.805,6.029,CST-1368DR,4448,5017,11992,01.056,551
2022-12-15T10:07:08,42.805,6.029,CST-1368DR,4448,5017,11991,01.057,551
2022-12-15T10:10:10,42.805,6.029,CST-1368DR,4448,5017,11991,01.057,551
2022-12-15T10:13:12,42.805,6.029,CST-1368DR,4448,5016,11989,01.057,551
2022-12-15T10:16:13,42.805,6.029,CST-1368DR,4448,5016,11989,01.057,551
2022-12-15T10:19:15,42.805,6.029,CST-1368DR,4448,5018,11993,01.056,551
2022-12-15T10:22:16,42.805,6.029,CST-1368DR,4448,5016,11989,01.057,551
2022-12-15T10:25:18,42.805,6.029,CST-1368DR,4448,5017,11992,01.056,551
2022-12-15T10:28:19,42.805,6.029,CST-1368DR,4448,5017,11991,01.057,551
2022-12-15T10:31:21,42.805,6.029,CST-1368DR,4448,5015,11988,01.058,551
2022-12-15T10:34:23,42.805,6.029,CST-1368DR,4448,5017,11991,01.057,551
2022-12-15T10:37:24,42.805,6.029,CST-1368DR,4448,5017,11991,01.057,551
2022-12-15T10:40:26,42.805,6.029,CST-1368DR,4448,5014,11983,01.059,551
2022-12-15T10:43:27,42.805,6.029,CST-1368DR,4448,5015,11988,01.058,551
2022-12-15T10:46:29,42.805,6.029,CST-1368DR,4448,5015,11987,01.058,551
2022-12-15T10:49:31,42.805,6.029,CST-1368DR,4448,5016,11989,01.057,551
2022-12-15T10:52:32,42.805,6.029,CST-1368DR,4448,5017,11992,01.056,551
2022-12-15T10:55:34,42.805,6.029,CST-1368DR,4448,5017,11991,01.057,551
2022-12-15T10:58:35,42.805,6.029,CST-1368DR,4448,5015,11988,01.058,551
2022-12-15T11:01:37,42.805,6.029,CST-1368DR,4448,5015,11987,01.058,551
2022-12-15T11:04:39,42.805,6.029,CST-1368DR,4448,5015,11987,01.058,551
2022-12-15T11:07:40,42.805,6.029,CST-1368DR,4448,5014,11983,01.059,551
2022-12-15T11:10:42,42.805,6.029,CST-1368DR,4448,5015,11988,01.058,551
2022-12-15T11:13:43,42.805,6.029,CST-1368DR,4448,5016,11989,01.057,551
2022-12-15T11:16:45,42.805,6.029,CST-1368DR,4448,5016,11989,01.057,551
2022-12-15T11:19:46,42.805,6.029,CST-1368DR,4448,5015,11988,01.058,551
2022-12-15T11:22:48,42.805,6.029,CST-1368DR,4448,5017,11991,01.057,551
2022-12-15T11:25:50,42.805,6.029,CST-1368DR,4448,5016,11990,01.057,551
2022-12-15T11:28:51,42.805,6.029,CST-1368DR,4448,5017,11991,01.057,551
2022-12-15T11:31:53,42.805,6.029,CST-1368DR,4448,5016,11989,01.057,551
2022-12-15T11:34:54,42.805,6.029,CST-1368DR,4448,5016,11990,01.057,551
2022-12-15T11:37:56,42.805,6.029,CST-1368DR,4448,5016,11989,01.057,551
2022-12-15T11:40:58,42.805,6.029,CST-1368DR,4448,5007,11967,01.065,551
2022-12-15T11:43:59,42.805,6.029,CST-1368DR,4448,5017,11992,01.056,551
2022-12-15T11:47:01,42.805,6.029,CST-1368DR,4448,5016,11989,01.057,551
2022-12-15T11:50:02,42.805,6.029,CST-1368DR,4448,5017,11991,01.057,551
2022-12-15T11:53:04,42.805,6.029,CST-1368DR,4448,5017,11992,01.056,551
2022-12-15T11:56:05,42.805,6.029,CST-1368DR,4448,5016,11988,01.058,551
2022-12-15T11:59:07,42.805,6.029,CST-1368DR,4448,5017,11991,01.057,551
2022-12-15T12:02:09,42.805,6.029,CST-1368DR,4448,5017,11991,01.057,551
2022-12-15T12:05:10,42.805,6.029,CST-1368DR,4448,5016,11990,01.057,551
2022-12-15T12:08:12,42.805,6.029,CST-1368DR,4448,5013,11982,01.060,551
2022-12-15T12:11:13,42.805,6.029,CST-1368DR,4448,5016,11989,01.057,551
2022-12-15T12:14:15,42.805,6.029,CST-1368DR,4448,5015,11987,01.058,551
2022-12-15T12:17:17,42.805,6.029,CST-1368DR,4448,5015,11988,01.058,551
2022-12-15T12:20:18,42.805,6.029,CST-1368DR,4448,5017,11992,01.056,551
2022-12-15T12:23:20,42.805,6.029,CST-1368DR,4448,5013,11982,01.060,551
2022-12-15T12:26:21,42.805,6.029,CST-1368DR,4448,5017,11991,01.057,551
2022-12-15T12:29:23,42.805,6.029,CST-1368DR,4448,5017,11991,01.057,551
2022-12-15T12:32:24,42.805,6.029,CST-1368DR,4448,5015,11987,01.058,551
2022-12-15T12:35:26,42.805,6.029,CST-1368DR,4448,5016,11990,01.057,551
2022-12-15T12:38:28,42.805,6.029,CST-1368DR,4448,5017,11991,01.057,551
2022-12-15T12:41:29,42.805,6.029,CST-1368DR,4448,5014,11985,01.059,551
2022-12-15T12:44:31,42.805,6.029,CST-1368DR,4448,5016,11990,01.057,551
2022-12-15T12:47:32,42.805,6.029,CST-1368DR,4448,5016,11989,01.057,551
2022-12-15T12:50:34,42.805,6.029,CST-1368DR,4448,5018,11995,01.055,551
2022-12-15T12:53:36,42.805,6.029,CST-1368DR,4448,5019,11996,01.055,551
2022-12-15T12:56:37,42.805,6.029,CST-1368DR,4448,5017,11992,01.056,551
2022-12-15T12:59:39,42.805,6.029,CST-1368DR,4448,5014,11985,01.059,551
2022-12-15T13:02:40,42.805,6.029,CST-1368DR,4448,5014,11984,01.059,551
2022-12-15T13:05:42,42.805,6.029,CST-1368DR,4448,5017,11991,01.057,551
2022-12-15T13:08:44,42.805,6.029,CST-1368DR,4448,5016,11989,01.057,551
2022-12-15T13:11:45,42.805,6.029,CST-1368DR,4448,5016,11989,01.057,551
2022-12-15T13:14:47,42.805,6.029,CST-1368DR,4448,5016,11988,01.058,551
2022-12-15T13:17:48,42.805,6.029,CST-1368DR,4448,5016,11989,01.057,551
2022-12-15T13:20:50,42.805,6.029,CST-1368DR,4448,5015,11986,01.058,551
2022-12-15T13:23:51,42.805,6.029,CST-1368DR,4448,5015,11987,01.058,551
2022-12-15T13:26:53,42.805,6.029,CST-1368DR,4448,5016,11988,01.058,551
2022-12-15T13:29:55,42.805,6.029,CST-1368DR,4448,5006,11965,01.065,551
2022-12-15T13:32:56,42.805,6.029,CST-1368DR,4448,5017,11992,01.056,551
2022-12-15T13:35:58,42.805,6.029,CST-1368DR,4448,5017,11991,01.057,551
2022-12-15T13:38:59,42.805,6.029,CST-1368DR,4448,5017,11992,01.056,551
2022-12-15T13:42:01,42.805,6.029,CST-1368DR,4448,5015,11988,01.058,551
2022-12-15T13:45:03,42.805,6.029,CST-1368DR,4448,5017,11991,01.057,551
2022-12-15T13:48:04,42.805,6.029,CST-1368DR,4448,5016,11990,01.057,551
2022-12-15T13:51:06,42.805,6.029,CST-1368DR,4448,5017,11992,01.056,551
2022-12-15T13:54:07,42.805,6.029,CST-1368DR,4448,5015,11986,01.058,551
2022-12-15T13:57:09,42.805,6.029,CST-1368DR,4448,5015,11986,01.058,551
2022-12-15T14:00:10,42.805,6.029,CST-1368DR,4448,5017,11992,01.056,551
2022-12-15T14:03:12,42.805,6.029,CST-1368DR,4448,5016,11989,01.057,551
2022-12-15T14:06:14,42.805,6.029,CST-1368DR,4448,5017,11991,01.057,551
2022-12-15T14:09:15,42.805,6.029,CST-1368DR,4448,5016,11990,01.057,551
2022-12-15T14:12:17,42.805,6.029,CST-1368DR,4448,5018,11993,01.056,551
2022-12-15T14:15:18,42.805,6.029,CST-1368DR,4448,5014,11985,01.059,551
2022-12-15T14:18:20,42.805,6.029,CST-1368DR,4448,5016,11989,01.057,551
2022-12-15T14:21:22,42.805,6.029,CST-1368DR,4448,5016,11989,01.057,551
2022-12-15T14:24:23,42.805,6.029,CST-1368DR,4448,5015,11986,01.058,551
2022-12-15T14:27:25,42.805,6.029,CST-1368DR,4448,5014,11984,01.059,551
2022-12-15T14:30:26,42.805,6.029,CST-1368DR,4448,5015,11988,01.058,551
2022-12-15T14:33:28,42.805,6.029,CST-1368DR,4448,5017,11992,01.056,551
2022-12-15T14:36:29,42.805,6.029,CST-1368DR,4448,5015,11988,01.058,551
2022-12-15T14:39:31,42.805,6.029,CST-1368DR,4448,5016,11989,01.057,551
2022-12-15T14:42:33,42.805,6.029,CST-1368DR,4448,5014,11983,01.059,551
2022-12-15T14:45:34,42.805,6.029,CST-1368DR,4448,5014,11985,01.059,551
2022-12-15T14:48:36,42.805,6.029,CST-1368DR,4448,5015,11988,01.058,551
2022-12-15T14:51:37,42.805,6.029,CST-1368DR,4448,5014,11983,01.059,551
2022-12-15T14:54:39,42.805,6.029,CST-1368DR,4448,5016,11990,01.057,551
2022-12-15T14:57:41,42.805,6.029,CST-1368DR,4448,5016,11988,01.058,551
2022-12-15T15:00:42,42.805,6.029,CST-1368DR,4448,5017,11991,01.057,551
2022-12-15T15:03:44,42.805,6.029,CST-1368DR,4448,5018,11994,01.056,551
2022-12-15T15:06:45,42.805,6.029,CST-1368DR,4448,5018,11993,01.056,551
2022-12-15T15:09:47,42.805,6.029,CST-1368DR,4448,5016,11988,01.058,551
2022-12-15T15:12:48,42.805,6.029,CST-1368DR,4448,5015,11988,01.058,551
2022-12-15T15:15:50,42.805,6.029,CST-1368DR,4448,5016,11989,01.057,551
2022-12-15T15:18:52,42.805,6.029,CST-1368DR,4448,5017,11992,01.056,551
2022-12-15T15:21:53,42.805,6.029,CST-1368DR,4448,5016,11990,01.057,551
2022-12-15T15:24:55,42.805,6.029,CST-1368DR,4448,5016,11989,01.057,551
2022-12-15T15:27:56,42.805,6.029,CST-1368DR,4448,5013,11983,01.059,551
2022-12-15T15:30:58,42.805,6.029,CST-1368DR,4448,5019,11997,01.055,551
2022-12-15T15:34:00,42.805,6.029,CST-1368DR,4448,5018,11995,01.055,551
2022-12-15T15:37:01,42.805,6.029,CST-1368DR,4448,5015,11986,01.058,551
2022-12-15T15:40:03,42.805,6.029,CST-1368DR,4448,5016,11990,01.057,551
2022-12-15T15:43:04,42.805,6.029,CST-1368DR,4448,5016,11989,01.057,551
2022-12-15T15:46:06,42.805,6.029,CST-1368DR,4448,5015,11988,01.058,551
2022-12-15T15:49:07,42.805,6.029,CST-1368DR,4448,5016,11988,01.058,551
2022-12-15T15:52:09,42.805,6.029,CST-1368DR,4448,5019,11995,01.055,551
2022-12-15T15:55:11,42.805,6.029,CST-1368DR,4448,5016,11990,01.057,551
2022-12-15T15:58:12,42.805,6.029,CST-1368DR,4448,5017,11991,01.057,551
2022-12-15T16:01:14,42.805,6.029,CST-1368DR,4448,5017,11991,01.057,551
2022-12-15T16:04:15,42.805,6.029,CST-1368DR,4448,5016,11989,01.057,551
2022-12-15T16:07:17,42.805,6.029,CST-1368DR,4447,5017,11994,01.056,551
2022-12-15T16:10:19,42.805,6.029,CST-1368DR,4447,5016,11991,01.057,551
2022-12-15T16:13:20,42.805,6.029,CST-1368DR,4447,5016,11992,01.056,551
2022-12-15T16:16:22,42.805,6.029,CST-1368DR,4448,5015,11986,01.058,551
2022-12-15T16:19:23,42.805,6.029,CST-1368DR,4448,5014,11985,01.059,551
2022-12-15T16:22:25,42.805,6.029,CST-1368DR,4448,5016,11990,01.057,551
2022-12-15T16:25:26,42.805,6.029,CST-1368DR,4448,5015,11987,01.058,551
2022-12-15T16:28:28,42.805,6.029,CST-1368DR,4448,5015,11986,01.058,551
2022-12-15T16:31:30,42.805,6.029,CST-1368DR,4448,5014,11985,01.059,551
2022-12-15T16:34:31,42.805,6.029,CST-1368DR,4447,5013,11985,01.059,551
2022-12-15T16:37:33,42.805,6.029,CST-1368DR,4448,5015,11986,01.058,551